Location: Acequia del Cap
(41.7000°N, 0.6167°E)
Time: 00:15:54
(UTC+00:00)

NOSS 0 Rocket - Pass Details

Date: 07 August 2020
Orbit: 933 x 956 km, 70.0° (Epoch: 22 September)

Event Time Altitude Azimuth Distance (km) Brightness Sun altitude
Rises 01:36:36 0° 330° (NNW) 3,635 7.4 -28.1°
Reaches altitude 10° 01:39:10 10° 327° (NNW) 2,688 6.6 -27.9°
Enters shadow 01:44:42 56° 273° (W) 1,130 4.1 -27.4°
